SPHAA EPKK-EPDE

Flight info

Callsign SPHAA
Flight time 1h 0m
Altitude 9000
Route POBOK DCT LODBO/N0174F080
Aircraft DA42/L-SBDGRY/S

Departure

Time 2026-04-21 19:48
Airport Kraków John Paul II International Airport (EPKK)

Arrival

Time 2026-04-21 20:48
Airport Deblin Military Air Base (EPDE)
Time Latitude Longitude Altitude Speed Heading
2026-04-21 19:29 50.07703 19.80251 783 ft 0 kts 347°
2026-04-21 19:40 50.07704 19.80250 783 ft 3 kts 346°
2026-04-21 19:41 50.07747 19.80239 783 ft 7 kts 13°
2026-04-21 19:41 50.07776 19.80314 783 ft 11 kts 66°
2026-04-21 19:41 50.07839 19.80331 783 ft 9 kts 348°
2026-04-21 19:41 50.07843 19.80330 783 ft 0 kts 349°
2026-04-21 19:45 50.07858 19.80324 783 ft 10 kts 348°
2026-04-21 19:46 50.07972 19.80285 782 ft 19 kts 346°
2026-04-21 19:46 50.08007 19.80194 783 ft 0 kts 257°
2026-04-21 19:46 50.08007 19.80193 783 ft 1 kts 257°
2026-04-21 19:47 50.07971 19.79936 784 ft 54 kts 257°
2026-04-21 19:47 50.07856 19.79104 797 ft 96 kts 257°
2026-04-21 19:47 50.07695 19.78050 1021 ft 104 kts 260°
2026-04-21 19:47 50.07547 19.76944 1377 ft 105 kts 260°
2026-04-21 19:48 50.07381 19.75825 1744 ft 107 kts 259°
2026-04-21 19:48 50.07196 19.74683 2110 ft 110 kts 260°
2026-04-21 19:48 50.07003 19.73515 2463 ft 112 kts 263°
2026-04-21 19:48 50.06866 19.72311 2826 ft 114 kts 266°
2026-04-21 19:49 50.06719 19.71093 3182 ft 115 kts 265°
2026-04-21 19:49 50.06559 19.69867 3567 ft 116 kts 264°
2026-04-21 19:49 50.06391 19.68635 3928 ft 117 kts 264°
2026-04-21 19:49 50.06222 19.67409 4288 ft 118 kts 264°
2026-04-21 19:50 50.06048 19.66161 4661 ft 118 kts 264°
2026-04-21 19:50 50.06042 19.64915 5032 ft 113 kts 292°
2026-04-21 19:50 50.06418 19.63899 5385 ft 106 kts 322°
2026-04-21 19:50 50.07035 19.63335 5764 ft 102 kts 349°
2026-04-21 19:51 50.07726 19.63090 6152 ft 102 kts 352°
2026-04-21 19:51 50.08421 19.62854 6556 ft 102 kts 352°
2026-04-21 19:51 50.09118 19.62619 6923 ft 103 kts 352°
2026-04-21 19:51 50.09818 19.62382 7296 ft 103 kts 352°
2026-04-21 19:52 50.10501 19.62577 7663 ft 101 kts 31°
2026-04-21 19:52 50.11057 19.63255 8041 ft 102 kts 38°
2026-04-21 19:52 50.11608 19.63959 8427 ft 103 kts 38°
2026-04-21 19:52 50.12165 19.64659 8806 ft 103 kts 38°
2026-04-21 19:53 50.12721 19.65348 9205 ft 104 kts 38°
2026-04-21 19:53 50.13288 19.66050 9600 ft 104 kts 38°
2026-04-21 19:53 50.13861 19.66754 9992 ft 105 kts 39°
2026-04-21 19:53 50.14436 19.67459 10348 ft 105 kts 39°
2026-04-21 19:54 50.15012 19.68166 10695 ft 105 kts 39°
2026-04-21 19:54 50.15586 19.68871 11077 ft 104 kts 39°
2026-04-21 19:54 50.16196 19.69624 11161 ft 123 kts 39°
2026-04-21 19:54 50.16916 19.70510 11165 ft 139 kts 39°
2026-04-21 19:55 50.17707 19.71481 11160 ft 150 kts 38°
2026-04-21 19:55 50.18546 19.72510 11162 ft 155 kts 38°
2026-04-21 19:55 50.19393 19.73549 11161 ft 158 kts 38°
2026-04-21 19:55 50.20265 19.74620 11160 ft 160 kts 38°
2026-04-21 19:56 50.21150 19.75705 11160 ft 163 kts 38°
2026-04-21 19:56 50.22049 19.76809 11160 ft 165 kts 38°
2026-04-21 19:56 50.22955 19.77927 11159 ft 166 kts 38°
2026-04-21 19:56 50.23865 19.79048 11159 ft 167 kts 38°
2026-04-21 19:57 50.24779 19.80174 11159 ft 167 kts 38°
2026-04-21 19:57 50.25693 19.81301 11158 ft 167 kts 38°
2026-04-21 19:57 50.26609 19.82431 11158 ft 168 kts 38°
2026-04-21 19:57 50.27525 19.83561 11161 ft 168 kts 38°
2026-04-21 19:58 50.28441 19.84691 11161 ft 168 kts 38°
2026-04-21 19:58 50.29344 19.85808 11161 ft 166 kts 38°
2026-04-21 19:58 50.30244 19.86923 11161 ft 164 kts 38°
2026-04-21 19:58 50.31132 19.88020 11160 ft 163 kts 38°
2026-04-21 19:59 50.32029 19.89129 11161 ft 165 kts 38°
2026-04-21 19:59 50.32930 19.90245 11163 ft 166 kts 38°
2026-04-21 19:59 50.33835 19.91366 11162 ft 166 kts 39°
2026-04-21 19:59 50.34741 19.92488 11160 ft 166 kts 39°
2026-04-21 20:00 50.35646 19.93609 11156 ft 166 kts 38°
2026-04-21 20:00 50.36538 19.94718 11154 ft 162 kts 38°
2026-04-21 20:00 50.37411 19.95800 11153 ft 158 kts 38°
2026-04-21 20:00 50.38278 19.96875 11150 ft 159 kts 38°
2026-04-21 20:01 50.39153 19.97961 11151 ft 161 kts 38°
2026-04-21 20:01 50.40036 19.99058 11149 ft 162 kts 38°
2026-04-21 20:01 50.40923 20.00160 11149 ft 163 kts 39°
2026-04-21 20:01 50.41809 20.01266 11147 ft 163 kts 39°
2026-04-21 20:02 50.42684 20.02355 11147 ft 163 kts 39°
2026-04-21 20:02 50.43573 20.03461 11148 ft 163 kts 39°
2026-04-21 20:02 50.44463 20.04569 11149 ft 163 kts 38°
2026-04-21 20:02 50.45352 20.05676 11148 ft 163 kts 39°
2026-04-21 20:03 50.46238 20.06783 11147 ft 163 kts 39°
2026-04-21 20:03 50.47122 20.07886 11147 ft 162 kts 39°
2026-04-21 20:03 50.48008 20.08992 11153 ft 162 kts 39°
2026-04-21 20:03 50.48889 20.10093 11153 ft 162 kts 39°
2026-04-21 20:04 50.49769 20.11192 11153 ft 162 kts 39°
2026-04-21 20:04 50.50649 20.12292 11153 ft 162 kts 39°
2026-04-21 20:04 50.51531 20.13395 11152 ft 162 kts 39°
2026-04-21 20:04 50.52399 20.14481 11148 ft 161 kts 39°
2026-04-21 20:05 50.53274 20.15577 11147 ft 161 kts 39°
2026-04-21 20:05 50.54147 20.16669 11146 ft 160 kts 39°
2026-04-21 20:05 50.55015 20.17759 11147 ft 160 kts 39°
2026-04-21 20:05 50.55883 20.18848 11145 ft 159 kts 39°
2026-04-21 20:06 50.56748 20.19932 11146 ft 159 kts 39°
2026-04-21 20:06 50.57613 20.21018 11145 ft 159 kts 39°
2026-04-21 20:06 50.58456 20.22140 11142 ft 159 kts 46°
2026-04-21 20:06 50.59217 20.23406 11145 ft 159 kts 46°
2026-04-21 20:07 50.59974 20.24674 11142 ft 159 kts 46°
2026-04-21 20:07 50.60730 20.25942 11142 ft 159 kts 46°
2026-04-21 20:07 50.61488 20.27212 11141 ft 159 kts 46°
2026-04-21 20:07 50.62244 20.28480 11141 ft 159 kts 46°
2026-04-21 20:08 50.63001 20.29750 11144 ft 159 kts 46°
2026-04-21 20:08 50.63750 20.31005 11144 ft 159 kts 46°
2026-04-21 20:08 50.64508 20.32278 11144 ft 159 kts 46°
2026-04-21 20:08 50.65266 20.33551 11144 ft 160 kts 46°
2026-04-21 20:09 50.66028 20.34830 11145 ft 160 kts 46°
2026-04-21 20:09 50.66791 20.36113 11145 ft 161 kts 46°
2026-04-21 20:09 50.67555 20.37398 11143 ft 161 kts 46°
2026-04-21 20:09 50.68324 20.38691 11143 ft 161 kts 46°
2026-04-21 20:10 50.69092 20.39984 11137 ft 162 kts 46°
2026-04-21 20:10 50.69863 20.41284 11139 ft 163 kts 46°
2026-04-21 20:10 50.70636 20.42586 11138 ft 163 kts 46°
2026-04-21 20:10 50.71411 20.43894 11133 ft 163 kts 46°
2026-04-21 20:11 50.72184 20.45199 11136 ft 162 kts 46°
2026-04-21 20:11 50.72953 20.46497 11137 ft 162 kts 46°
2026-04-21 20:11 50.73714 20.47781 11136 ft 162 kts 46°
2026-04-21 20:11 50.74373 20.48896 11137 ft 162 kts 46°
2026-04-21 20:12 50.75023 20.49995 11136 ft 163 kts 46°
2026-04-21 20:12 50.75799 20.51306 11136 ft 163 kts 46°
2026-04-21 20:12 50.76323 20.52193 11136 ft 164 kts 46°
2026-04-21 20:12 50.77350 20.53932 11137 ft 164 kts 46°
2026-04-21 20:13 50.78129 20.55252 11134 ft 164 kts 46°
2026-04-21 20:13 50.78910 20.56575 11134 ft 165 kts 46°
2026-04-21 20:13 50.79693 20.57903 11144 ft 166 kts 46°
2026-04-21 20:13 50.80481 20.59241 11139 ft 167 kts 46°
2026-04-21 20:14 50.81220 20.60647 11131 ft 168 kts 61°
2026-04-21 20:14 50.81552 20.62429 11137 ft 170 kts 75°
2026-04-21 20:14 50.81770 20.64272 11138 ft 170 kts 76°
2026-04-21 20:14 50.81975 20.66120 11138 ft 170 kts 76°
2026-04-21 20:15 50.82178 20.67967 11141 ft 171 kts 76°
2026-04-21 20:15 50.82379 20.69817 11136 ft 171 kts 76°
2026-04-21 20:15 50.82580 20.71670 11135 ft 170 kts 76°
2026-04-21 20:15 50.82779 20.73517 11136 ft 170 kts 76°
2026-04-21 20:16 50.82977 20.75343 11137 ft 171 kts 76°
2026-04-21 20:16 50.83178 20.77189 11138 ft 170 kts 76°
2026-04-21 20:16 50.83378 20.79038 11137 ft 170 kts 76°
2026-04-21 20:16 50.83578 20.80884 11138 ft 170 kts 76°
2026-04-21 20:17 50.83779 20.82734 11141 ft 171 kts 76°
2026-04-21 20:17 50.83979 20.84583 11140 ft 171 kts 76°
2026-04-21 20:17 50.84181 20.86436 11140 ft 171 kts 76°
2026-04-21 20:17 50.84381 20.88285 11141 ft 171 kts 76°
2026-04-21 20:18 50.84519 20.89510 11134 ft 170 kts 73°
2026-04-21 20:18 50.85059 20.91846 11132 ft 168 kts 65°
2026-04-21 20:18 50.85506 20.93558 11131 ft 168 kts 65°
2026-04-21 20:18 50.85909 20.95303 11132 ft 169 kts 68°
2026-04-21 20:19 50.86274 20.97070 11132 ft 168 kts 69°
2026-04-21 20:19 50.86629 20.98830 11132 ft 167 kts 69°
2026-04-21 20:19 50.86977 21.00556 11134 ft 167 kts 69°
2026-04-21 20:19 50.87332 21.02311 11136 ft 168 kts 69°
2026-04-21 20:20 50.87690 21.04081 11135 ft 169 kts 69°
2026-04-21 20:20 50.88047 21.05857 11134 ft 169 kts 69°
2026-04-21 20:20 50.88404 21.07626 11134 ft 169 kts 69°
2026-04-21 20:20 50.88760 21.09396 11134 ft 169 kts 69°
2026-04-21 20:21 50.89115 21.11163 11133 ft 169 kts 69°
2026-04-21 20:21 50.89472 21.12938 11132 ft 169 kts 69°
2026-04-21 20:21 50.89828 21.14709 11132 ft 169 kts 69°
2026-04-21 20:21 50.90183 21.16479 11142 ft 169 kts 69°
2026-04-21 20:22 50.90540 21.18261 11133 ft 169 kts 69°
2026-04-21 20:22 50.91251 21.21815 11131 ft 168 kts 69°
2026-04-21 20:22 50.91599 21.23558 11132 ft 168 kts 69°
2026-04-21 20:23 50.91953 21.25327 11132 ft 169 kts 69°
2026-04-21 20:23 50.92307 21.27102 11132 ft 169 kts 69°
2026-04-21 20:23 50.92659 21.28875 11132 ft 169 kts 69°
2026-04-21 20:23 50.93015 21.30654 11131 ft 169 kts 69°
2026-04-21 20:24 50.93370 21.32434 11128 ft 169 kts 69°
2026-04-21 20:24 50.93724 21.34218 11130 ft 170 kts 69°
2026-04-21 20:24 50.94079 21.36004 11129 ft 170 kts 69°
2026-04-21 20:24 50.94432 21.37784 11128 ft 169 kts 69°
2026-04-21 20:25 50.94784 21.39563 11131 ft 169 kts 69°
2026-04-21 20:25 50.95135 21.41336 11130 ft 169 kts 69°
2026-04-21 20:25 50.95486 21.43112 11130 ft 169 kts 69°
2026-04-21 20:25 50.95778 21.44918 11130 ft 169 kts 73°
2026-04-21 20:26 50.96017 21.46751 11131 ft 170 kts 75°
2026-04-21 20:26 50.96232 21.48595 11137 ft 170 kts 76°
2026-04-21 20:26 50.96432 21.50423 11136 ft 170 kts 76°
2026-04-21 20:26 50.96627 21.52276 11136 ft 170 kts 76°
2026-04-21 20:27 50.96818 21.54128 11133 ft 170 kts 77°
2026-04-21 20:27 50.97008 21.55982 11133 ft 170 kts 77°
2026-04-21 20:27 50.97196 21.57840 11133 ft 170 kts 77°
2026-04-21 20:27 50.97384 21.59697 11133 ft 170 kts 77°
2026-04-21 20:28 50.97572 21.61552 11131 ft 170 kts 77°
2026-04-21 20:28 50.97759 21.63411 11128 ft 170 kts 77°
2026-04-21 20:28 50.97883 21.64666 11127 ft 170 kts 77°
2026-04-21 20:28 50.98061 21.66503 11127 ft 171 kts 77°
2026-04-21 20:29 50.98239 21.68360 11127 ft 170 kts 77°
2026-04-21 20:29 50.98418 21.70220 11127 ft 170 kts 77°
2026-04-21 20:29 50.98597 21.72084 11126 ft 170 kts 77°
2026-04-21 20:29 50.98776 21.73943 11138 ft 170 kts 77°
2026-04-21 20:30 50.99124 21.75704 11120 ft 166 kts 52°
2026-04-21 20:30 51.00055 21.76717 11117 ft 166 kts 17°
2026-04-21 20:30 51.01224 21.76853 11024 ft 166 kts
2026-04-21 20:30 51.02372 21.77047 10771 ft 167 kts 14°
2026-04-21 20:31 51.03482 21.77551 10563 ft 165 kts 20°
2026-04-21 20:31 51.04554 21.78139 10331 ft 165 kts 21°
2026-04-21 20:31 51.05635 21.78744 10120 ft 164 kts 21°
2026-04-21 20:31 51.06713 21.79342 9890 ft 164 kts 20°
2026-04-21 20:32 51.07788 21.79936 9651 ft 163 kts 20°
2026-04-21 20:32 51.08863 21.80530 9412 ft 163 kts 20°
2026-04-21 20:32 51.09936 21.81122 9187 ft 163 kts 20°
2026-04-21 20:32 51.11006 21.81715 8960 ft 163 kts 20°
2026-04-21 20:33 51.12073 21.82305 8740 ft 162 kts 20°
2026-04-21 20:33 51.13140 21.82894 8520 ft 162 kts 20°
2026-04-21 20:33 51.14201 21.83482 8309 ft 161 kts 20°
2026-04-21 20:33 51.15262 21.84070 8096 ft 161 kts 20°
2026-04-21 20:34 51.16322 21.84658 7881 ft 161 kts 20°
2026-04-21 20:34 51.16896 21.84976 7773 ft 160 kts 19°
2026-04-21 20:34 51.17948 21.85560 7554 ft 161 kts 19°
2026-04-21 20:35 51.19001 21.86144 7363 ft 160 kts 19°
2026-04-21 20:35 51.20050 21.86726 7163 ft 160 kts 19°
2026-04-21 20:35 51.21103 21.87311 6964 ft 159 kts 19°
2026-04-21 20:35 51.22147 21.87891 6770 ft 159 kts 19°
2026-04-21 20:36 51.23196 21.88475 6578 ft 159 kts 19°
2026-04-21 20:36 51.24243 21.89057 6372 ft 159 kts 19°
2026-04-21 20:36 51.25286 21.89637 6172 ft 159 kts 19°
2026-04-21 20:36 51.26305 21.90204 6136 ft 151 kts 19°
2026-04-21 20:37 51.27277 21.90745 6135 ft 145 kts 20°
2026-04-21 20:37 51.28205 21.91263 6139 ft 142 kts 19°
2026-04-21 20:37 51.29132 21.91780 6137 ft 140 kts 19°
2026-04-21 20:37 51.30047 21.92291 6138 ft 139 kts 19°
2026-04-21 20:38 51.30959 21.92799 6141 ft 138 kts 19°
2026-04-21 20:38 51.31865 21.93305 6143 ft 138 kts 19°
2026-04-21 20:38 51.32772 21.93812 6141 ft 138 kts 19°
2026-04-21 20:38 51.33677 21.94318 6139 ft 137 kts 19°
2026-04-21 20:39 51.34577 21.94822 6137 ft 137 kts 19°
2026-04-21 20:39 51.35477 21.95324 6138 ft 137 kts 19°
2026-04-21 20:39 51.36377 21.95827 6139 ft 137 kts 19°
2026-04-21 20:39 51.37281 21.96333 6138 ft 138 kts 19°
2026-04-21 20:40 51.38185 21.96839 6137 ft 138 kts 19°
2026-04-21 20:40 51.39088 21.97345 6137 ft 138 kts 19°
2026-04-21 20:40 51.39992 21.97852 6137 ft 138 kts 19°
2026-04-21 20:40 51.40895 21.98358 6137 ft 137 kts 19°
2026-04-21 20:41 51.41791 21.98861 6132 ft 129 kts 20°
2026-04-21 20:41 51.42507 21.99267 6130 ft 98 kts 19°
2026-04-21 20:41 51.43129 21.99614 6011 ft 91 kts 20°
2026-04-21 20:41 51.43775 21.99980 5426 ft 105 kts 19°
2026-04-21 20:42 51.44478 22.00374 4918 ft 109 kts 19°
2026-04-21 20:42 51.45188 22.00772 4433 ft 108 kts 19°
2026-04-21 20:42 51.45891 22.01167 3959 ft 106 kts 19°
2026-04-21 20:42 51.46586 22.01557 3494 ft 105 kts 19°
2026-04-21 20:43 51.47274 22.01943 3023 ft 104 kts 19°
2026-04-21 20:43 51.47952 22.02323 2560 ft 103 kts 20°
2026-04-21 20:43 51.48620 22.02698 2135 ft 98 kts 19°
2026-04-21 20:43 51.49206 22.02842 2134 ft 83 kts
2026-04-21 20:44 51.49816 22.02612 2144 ft 101 kts 341°
2026-04-21 20:44 51.50476 22.02094 2140 ft 108 kts 356°
2026-04-21 20:44 51.51210 22.02339 2144 ft 112 kts 14°
2026-04-21 20:44 51.51974 22.02038 2139 ft 122 kts 327°
2026-04-21 20:45 51.52384 22.00798 2143 ft 136 kts 282°
2026-04-21 20:45 51.52178 21.99280 2147 ft 144 kts 251°
2026-04-21 20:45 51.51812 21.97817 2120 ft 132 kts 266°
2026-04-21 20:45 51.51886 21.96496 2121 ft 114 kts 281°
2026-04-21 20:46 51.52341 21.95726 1983 ft 90 kts 341°
2026-04-21 20:46 51.52762 21.95131 1834 ft 84 kts 313°
2026-04-21 20:46 51.53139 21.94400 1673 ft 87 kts 318°
2026-04-21 20:46 51.53442 21.93532 1482 ft 89 kts 309°
2026-04-21 20:47 51.53796 21.92711 1227 ft 92 kts 295°
2026-04-21 20:47 51.54102 21.91878 903 ft 83 kts 302°
2026-04-21 20:47 51.54394 21.91131 526 ft 74 kts 304°
2026-04-21 20:47 51.54644 21.90464 400 ft 68 kts 302°
2026-04-21 20:48 51.54824 21.89987 393 ft 29 kts 302°
2026-04-21 20:48 51.54911 21.89751 392 ft 21 kts 302°
2026-04-21 20:48 51.54898 21.89668 391 ft 9 kts 223°
2026-04-21 20:48 51.54847 21.89616 393 ft 10 kts 212°
2026-04-21 20:49 51.54771 21.89546 392 ft 14 kts 193°
2026-04-21 20:49 51.54693 21.89618 393 ft 13 kts 184°
2026-04-21 20:49 51.54615 21.89600 393 ft 6 kts 133°
2026-04-21 20:49 51.54612 21.89635 393 ft 0 kts 28°